Weather History for Springfield, VT

Change the Weather History Date:

Tuesday, December 3, 2013

  Actual Average Record
Temperature  
Mean Temperature 34 °F 30 °F  
Max Temperature 41 °F 39 °F 55 °F (1998)
Min Temperature 26 °F 22 °F 3 °F (2003)
Degree Days  
Heating Degree Days 31 35  
Month to date heating degree days 95 103  
Since 1 July heating degree days 1795 1746  
Moisture  
Dew Point 29 °F    
Average Humidity 88    
Maximum Humidity 100    
Minimum Humidity 76    
Precipitation  
Precipitation 0.00 in 0.12 in 0.79 in (2007)
Month to date precipitation 0.00 0.35  
Year to date precipitation 35.41 40.93  
Sea Level Pressure  
Sea Level Pressure 29.95 in    
Wind  
Wind Speed 1 mph (SSE)    
Max Wind Speed 7 mph    
Max Gust Speed 9 mph    
Visibility 4 miles    
Events      
T = Trace of Precipitation, MM = Missing Value Source: NWS Daily Summary

Daily Weather History Graph

Daily Weather History Graph

Search for Another Location

Airport:

Trip Planner

Search our weather history database for the weather conditions in past years. The results will help you decide how hot, cold, wet, or windy it might be!

Date:

Astronomy

Dec. 03, 2013 Rise Set
Actual Time 7:05 AM EST 4:14 PM EST
Civil Twilight 6:32 AM EST 4:46 PM EST
Nautical Twilight 5:57 AM EST 5:22 PM EST
Astronomical Twilight 5:22 AM EST 5:57 PM EST
Moon 7:30 AM EST (12/3) 5:16 PM EST (12/3)
Length of Visible Light 10h 14m
Length of Day
9h 09m
New Moon, 1% of the Moon is Illuminated
Dec 3
New Moon
Dec 9
First Quarter
Dec 17
Full
Dec 25
Last Quarter
Jan 1
New

Hourly Weather History & Observations

Time (EST) Temp. Windchill Dew Point Humidity Pressure Visibility Wind Dir Wind Speed Gust Speed Precip Events Conditions
12:26 AM 32.0 °F - 30.0 °F 92% 29.92 in 7.0 mi Calm Calm - N/A   Overcast
12:54 AM 32.0 °F - 30.0 °F 92% 29.95 in 6.0 mi Calm Calm - N/A   Overcast
1:05 AM 32.0 °F - 30.0 °F 92% 29.93 in 6.0 mi Calm Calm - N/A   Overcast
1:54 AM 32.0 °F - 30.0 °F 92% 29.95 in 6.0 mi Calm Calm - N/A   Overcast
2:54 AM 33.1 °F - 30.9 °F 92% 29.95 in 3.0 mi Calm Calm - N/A   Overcast
3:02 AM 32.0 °F - 30.9 °F 96% 29.93 in 2.5 mi Calm Calm - N/A   Overcast
3:17 AM 32.0 °F - 32.0 °F 100% 29.93 in 1.8 mi Calm Calm - N/A   Overcast
3:24 AM 32.0 °F - 32.0 °F 100% 29.93 in 2.0 mi Calm Calm - N/A   Overcast
3:49 AM 32.0 °F - 30.2 °F 93% 29.93 in 3.0 mi Calm Calm - N/A   Overcast
3:54 AM 32.0 °F 28.7 °F 30.9 °F 96% 29.95 in 2.5 mi West 3.5 mph - N/A   Overcast
4:17 AM 32.0 °F - 30.9 °F 96% 29.92 in 3.0 mi Calm Calm - N/A   Overcast
4:27 AM 32.0 °F 28.7 °F 30.9 °F 96% 29.92 in 2.0 mi WSW 3.5 mph - N/A   Overcast
4:40 AM 32.0 °F - 30.9 °F 96% 29.92 in 1.5 mi Calm Calm - N/A   Overcast
4:54 AM 32.0 °F - 32.0 °F 100% 29.94 in 1.2 mi Calm Calm - N/A   Overcast
5:16 AM 32.0 °F - 30.9 °F 96% 29.92 in 0.8 mi Calm Calm - N/A   Mist
5:25 AM 32.0 °F 28.7 °F 30.9 °F 96% 29.92 in 2.0 mi ENE 3.5 mph - N/A   Overcast
5:46 AM 30.9 °F - 30.9 °F 100% 29.92 in 5.0 mi Calm Calm - N/A   Overcast
5:54 AM 30.9 °F - 30.9 °F 100% 29.94 in 5.0 mi Calm Calm - N/A   Overcast
6:54 AM 30.9 °F - 30.0 °F 96% 29.95 in 8.0 mi Calm Calm - N/A   Overcast
7:12 AM 30.9 °F - 30.0 °F 96% 29.93 in 8.0 mi Calm Calm - N/A   Overcast
7:40 AM 32.0 °F - 30.9 °F 96% 29.93 in 6.0 mi Calm Calm - N/A   Overcast
7:54 AM 32.0 °F - 30.0 °F 92% 29.96 in 6.0 mi Calm Calm - N/A   Overcast
8:54 AM 32.0 °F - 30.9 °F 96% 29.96 in 7.0 mi Calm Calm - N/A   Overcast
9:54 AM 32.0 °F - 30.9 °F 96% 29.96 in 7.0 mi Calm Calm - N/A   Overcast
10:38 AM 33.1 °F - 30.9 °F 92% 29.94 in 9.0 mi Calm Calm - N/A   Overcast
10:54 AM 34.0 °F - 30.9 °F 89% 29.95 in 10.0 mi Calm Calm - N/A   Overcast
11:11 AM 34.0 °F - 30.9 °F 89% 29.92 in 10.0 mi Calm Calm - N/A   Overcast
11:54 AM 34.0 °F - 30.9 °F 89% 29.94 in 9.0 mi Calm Calm - N/A   Overcast
12:54 PM 37.0 °F - 32.0 °F 82% 29.91 in 10.0 mi Calm Calm - N/A   Partly Cloudy
1:54 PM 39.9 °F 36.7 °F 32.0 °F 73% 29.90 in 10.0 mi ESE 4.6 mph - N/A   Clear
2:54 PM 37.9 °F 33.5 °F 32.0 °F 79% 29.91 in 10.0 mi SSE 5.8 mph - N/A   Clear
3:54 PM 36.0 °F - 30.9 °F 82% 29.93 in 10.0 mi Calm Calm - N/A   Clear
4:54 PM 30.9 °F - 28.9 °F 92% 29.95 in 7.0 mi Calm Calm - N/A   Partly Cloudy
5:54 PM 28.9 °F - 28.0 °F 96% 29.96 in 5.0 mi Calm Calm - N/A   Partly Cloudy
6:44 PM 28.0 °F - 27.0 °F 96% 29.95 in 2.5 mi Calm Calm - N/A   Partly Cloudy
6:52 PM 26.6 °F - 26.6 °F 100% 29.95 in 5.0 mi Calm Calm - N/A   Partly Cloudy
6:54 PM 27.0 °F - 26.1 °F 96% 29.98 in 4.0 mi Calm Calm - N/A   Partly Cloudy
7:07 PM 28.0 °F - 26.1 °F 92% 29.96 in 1.8 mi Calm Calm - N/A   Scattered Clouds
7:31 PM 27.0 °F - 26.1 °F 96% 29.95 in 0.8 mi Calm Calm - N/A   Partly Cloudy
7:39 PM 27.0 °F - 25.0 °F 92% 29.95 in 1.0 mi Calm Calm - N/A   Mist
7:41 PM 27.0 °F - 25.0 °F 92% 29.95 in 2.5 mi Calm Calm - N/A   Partly Cloudy
7:54 PM 27.0 °F - 25.0 °F 92% 29.98 in 3.0 mi Calm Calm - N/A   Partly Cloudy
8:15 PM 27.0 °F - 25.0 °F 92% 29.95 in 1.8 mi Calm Calm - N/A   Scattered Clouds
8:37 PM 27.0 °F - 25.0 °F 92% 29.95 in 1.2 mi Calm Calm - N/A   Scattered Clouds
8:43 PM 27.0 °F - 25.0 °F 92% 29.95 in 3.0 mi Calm Calm - N/A   Scattered Clouds
8:54 PM 26.1 °F - 25.0 °F 96% 29.98 in 3.0 mi Calm Calm - N/A   Partly Cloudy
9:29 PM 27.0 °F - 25.0 °F 92% 29.95 in 2.5 mi Calm Calm - N/A   Partly Cloudy
9:38 PM 26.1 °F - 25.0 °F 96% 29.95 in 4.0 mi Calm Calm - N/A   Partly Cloudy
9:54 PM 26.1 °F - 25.0 °F 96% 29.98 in 4.0 mi Calm Calm - N/A   Scattered Clouds
10:18 PM 27.0 °F - 25.0 °F 92% 29.96 in 2.0 mi Calm Calm - N/A   Overcast
10:31 PM 26.1 °F - 25.0 °F 96% 29.96 in 0.8 mi Calm Calm - N/A   Overcast
10:45 PM 27.0 °F - 26.1 °F 96% 29.96 in 2.0 mi Calm Calm - N/A   Overcast
10:52 PM 26.6 °F - 26.6 °F 100% 29.97 in 4.0 mi Calm Calm - N/A   Overcast
10:54 PM 27.0 °F - 26.1 °F 96% 29.99 in 4.0 mi Calm Calm - N/A   Overcast
11:54 PM 28.0 °F - 26.1 °F 92% 29.99 in 4.0 mi Calm Calm - N/A   Overcast